Tracking 19170 objects as of 23-May-2018
HD Live streaming from Space Station
objects crossing your sky now

LES 1

Track LES 1 now!
10-day predictions
LES 1 is classified as:


NORAD ID: 1002
Int'l Code: 1965-008C
Perigee: 2,786.8 km
Apogee: 2,815.1 km
Inclination: 32.1 °
Period: 145.7 minutes
Semi major axis: 9171 km
RCS: 0.6427 m2 (medium)
Launch date: February 11, 1965
Source: United States (US)
Launch site: AIR FORCE EASTERN TEST RANGE (AFETR)
aabbcc
Your satellite tracking list
Your tracking list is empty




NASA's NSSDC Master Catalog

Two Line Element Set (TLE):
1  1002U 65008C   18142.36485334 +.00000001 +00000-0 -90640-3 0  9998
2  1002 032.1395 187.9994 0015445 056.9550 303.2429 09.88353069924531
Source of the keplerian elements: AFSPC